AC4AG Weather Reports


time (UTC)temp
C
wind
direction
speed
KPH
gust
KPH
rain 1hr
cm
rain 24hr
cm
rain mn
cm
humidity
%
barometer
mb
20260903102339 21 129 0.0 0.0 0.00 0.00 0.00 99 1017.8
20260903101839 21 118 0.0 0.0 0.00 0.00 0.00 99 1017.6
20260903101334 21 100 0.0 0.0 0.00 0.00 0.00 99 1017.7
20260903100830 21 117 0.0 0.0 0.00 0.00 0.00 99 1017.7
20260903100329 21 103 0.0 0.0 0.00 0.00 0.00 99 1017.6
20260903095821 21 115 0.0 1.6 0.00 0.00 0.00 99 1017.7
20260903095321 21 102 1.6 1.6 0.00 0.00 0.00 99 1017.4
20260903094816 21 87 1.6 1.6 0.00 0.00 0.00 99 1017.6
20260903094311 22 115 0.0 1.6 0.00 0.00 0.00 99 1017.5
20260903093806 22 78 1.6 3.2 0.00 0.00 0.00 99 1017.6
20260903093301 22 123 0.0 3.2 0.00 0.00 0.00 99 1017.7
20260903092801 22 115 1.6 1.6 0.00 0.00 0.00 99 1017.7
20260903092256 22 56 1.6 3.2 0.00 0.00 0.00 99 1017.4
20260903091756 22 61 1.6 3.2 0.00 0.00 0.00 99 1017.5
20260903091250 22 99 0.0 1.6 0.00 0.00 0.00 99 1017.3
20260903090746 22 108 1.6 3.2 0.00 0.00 0.00 99 1017.5
20260903090244 22 73 1.6 3.2 0.00 0.00 0.00 99 1017.6
20260903085743 22 68 1.6 3.2 0.00 0.00 0.00 99 1017.3
20260903085238 22 113 0.0 0.0 0.00 0.00 0.00 99 1017.5
20260903084736 22 77 1.6 3.2 0.00 0.00 0.00 99 1017.5
20260903084231 22 64 0.0 0.0 0.00 0.00 0.00 99 1017.3
20260903083727 22 138 0.0 0.0 0.00 0.00 0.00 99 1017.3
20260903083221 22 121 0.0 0.0 0.00 0.00 0.00 99 1017.1
20260903082720 22 100 1.6 1.6 0.00 0.00 0.00 99 1017.4
20260903082217 22 82 1.6 3.2 0.00 0.00 0.00 99 1017.3
20260903081716 22 103 0.0 0.0 0.00 0.00 0.00 99 1017.3
20260903081212 22 108 0.0 0.0 0.00 0.00 0.00 99 1017.1
20260903080708 22 98 0.0 0.0 0.00 0.00 0.00 99 1017.4
20260903080206 22 95 0.0 0.0 0.00 0.00 0.00 99 1017.6
20260903075704 22 111 0.0 0.0 0.00 0.00 0.00 99 1017.3
20260903075200 22 113 0.0 0.0 0.00 0.00 0.00 99 1017.1
20260903074659 22 104 0.0 0.0 0.00 0.00 0.00 99 1017.3
20260903074154 22 124 0.0 0.0 0.00 0.00 0.00 99 1017.1
20260903073649 22 133 0.0 0.0 0.00 0.00 0.00 99 1017.4
20260903073144 22 128 0.0 0.0 0.00 0.00 0.00 99 1017.3
20260903072640 22 121 0.0 0.0 0.00 0.00 0.00 99 1017.1
20260903072137 22 121 0.0 0.0 0.00 0.00 0.00 99 1017.0
20260903071633 22 107 0.0 0.0 0.00 0.00 0.00 99 1017.3
20260903071128 22 130 0.0 0.0 0.00 0.00 0.00 99 1017.3
20260903070628 22 119 0.0 0.0 0.00 0.00 0.00 99 1017.0
20260903070124 22 108 0.0 0.0 0.00 0.00 0.00 99 1017.1
20260903065623 22 147 0.0 0.0 0.00 0.00 0.00 99 1017.4
20260903065118 22 132 0.0 1.6 0.00 0.00 0.00 99 1017.3
20260903064618 22 112 0.0 0.0 0.00 0.00 0.00 99 1017.1
20260903064113 22 141 0.0 0.0 0.00 0.00 0.00 99 1017.4
20260903063609 22 95 0.0 0.0 0.00 0.00 0.00 99 1017.1
20260903063104 22 129 0.0 0.0 0.00 0.00 0.00 99 1017.3
20260903062559 22 122 0.0 0.0 0.00 0.00 0.00 99 1017.6
20260903062054 22 117 0.0 0.0 0.00 0.00 0.00 99 1017.3
20260903061549 22 80 0.0 0.0 0.00 0.00 0.00 99 1017.5
20260903061049 22 80 0.0 0.0 0.00 0.00 0.00 99 1017.1
20260903060549 22 80 0.0 0.0 0.00 0.00 0.00 99 1017.5
20260903060044 22 80 0.0 0.0 0.00 0.00 0.00 99 1017.3
20260903055541 22 80 0.0 0.0 0.00 0.00 0.00 99 1017.4
20260903055040 23 80 0.0 0.0 0.00 0.00 0.00 99 1017.1
20260903054535 23 80 0.0 0.0 0.00 0.00 0.00 99 1017.4
20260903054031 23 80 0.0 0.0 0.00 0.00 0.00 99 1017.4
20260903053526 22 80 0.0 0.0 0.00 0.00 0.00 99 1017.3
20260903053023 22 80 0.0 0.0 0.00 0.00 0.00 99 1017.5
20260903052518 22 80 0.0 0.0 0.00 0.00 0.00 99 1017.4
20260903052014 23 80 0.0 0.0 0.00 0.00 0.00 99 1017.3
20260903051514 23 80 0.0 0.0 0.00 0.00 0.00 99 1017.3
20260903051010 23 80 0.0 0.0 0.00 0.00 0.00 99 1017.5
20260903050508 23 80 0.0 0.0 0.00 0.00 0.00 99 1017.3
20260903050004 23 80 0.0 0.0 0.00 0.00 0.00 99 1017.1
20260903045458 23 95 0.0 0.0 0.00 0.00 0.00 99 1017.1
20260903044955 22 95 0.0 0.0 0.00 0.00 0.00 99 1017.4
20260903044450 23 110 0.0 0.0 0.00 0.00 0.00 99 1017.4
20260903043946 23 110 0.0 0.0 0.00 0.00 0.00 99 1017.4
20260903043442 23 110 0.0 0.0 0.00 0.00 0.00 99 1017.3
20260903042940 23 110 0.0 0.0 0.00 0.00 0.00 98 1017.3
20260903042436 23 110 0.0 0.0 0.00 0.00 0.00 98 1017.1
20260903041931 23 110 0.0 0.0 0.00 0.00 0.00 98 1017.1
20260903041428 23 110 0.0 0.0 0.00 0.00 0.00 98 1017.3
20260903040923 23 110 0.0 0.0 0.00 0.00 0.00 97 1017.4
20260903040422 23 110 0.0 0.0 0.00 0.00 0.00 97 1017.4
20260903035918 23 110 0.0 0.0 0.00 0.00 0.00 96 1017.4
20260903035414 23 110 0.0 0.0 0.00 0.00 0.00 95 1017.1
20260903034908 23 110 0.0 0.0 0.00 0.00 0.00 95 1017.3
20260903034403 23 110 0.0 0.0 0.00 0.00 0.00 95 1017.1
20260903033859 23 110 0.0 0.0 0.00 0.00 0.00 94 1017.4
20260903033354 24 110 0.0 0.0 0.00 0.00 0.00 93 1017.4
20260903032854 24 110 0.0 0.0 0.00 0.00 0.00 92 1017.4
20260903032350 25 110 0.0 0.0 0.00 0.00 0.00 92 1017.4
20260903031845 25 110 0.0 0.0 0.00 0.00 0.00 91 1017.4
20260903031344 25 110 0.0 0.0 0.00 0.00 0.00 91 1017.1
20260903030840 25 117 0.0 0.0 0.00 0.00 0.00 92 1017.3
20260903030336 25 132 0.0 0.0 0.00 0.00 0.00 92 1017.4
20260903025832 25 139 0.0 0.0 0.00 0.00 0.00 91 1017.1
20260903025327 25 124 0.0 0.0 0.00 0.00 0.00 91 1017.4
20260903024826 25 123 0.0 0.0 0.00 0.00 0.00 90 1017.0
20260903024326 25 123 0.0 0.0 0.00 0.00 0.00 89 1017.0
20260903023821 25 126 0.0 0.0 0.00 0.00 0.00 89 1017.3
20260903023317 25 126 0.0 0.0 0.00 0.00 0.00 88 1017.3
20260903022813 25 126 0.0 0.0 0.00 0.00 0.00 88 1017.4
20260903022311 25 131 0.0 0.0 0.00 0.00 0.00 87 1017.1
20260903021811 25 130 0.0 0.0 0.00 0.00 0.00 86 1017.3
20260903021306 26 130 0.0 0.0 0.00 0.00 0.00 85 1017.3
20260903020806 26 132 0.0 0.0 0.00 0.00 0.00 83 1017.1
20260903020301 26 123 0.0 0.0 0.00 0.00 0.00 82 1017.1
20260903015756 26 122 0.0 0.0 0.00 0.00 0.00 82 1017.3
20260903015252 26 144 0.0 0.0 0.00 0.00 0.00 82 1017.1
20260903014747 26 146 0.0 0.0 0.00 0.00 0.00 80 1017.0
20260903014246 27 146 0.0 0.0 0.00 0.00 0.00 79 1016.9
20260903013742 26 120 0.0 1.6 0.00 0.00 0.00 79 1016.9
20260903013240 27 145 0.0 0.0 0.00 0.00 0.00 79 1016.8
20260903012740 27 147 0.0 0.0 0.00 0.00 0.00 78 1016.8
20260903012240 27 111 0.0 1.6 0.00 0.00 0.00 76 1016.6
20260903011734 27 117 1.6 1.6 0.00 0.00 0.00 78 1016.6
20260903011233 27 140 0.0 0.0 0.00 0.00 0.00 79 1016.7
20260903010729 27 149 0.0 0.0 0.00 0.00 0.00 78 1016.7
20260903010229 27 151 0.0 0.0 0.00 0.00 0.00 78 1016.5
20260903005728 28 140 0.0 0.0 0.00 0.00 0.00 76 1016.4
20260903005223 28 140 0.0 0.0 0.00 0.00 0.00 74 1016.5
20260903004719 28 140 0.0 0.0 0.00 0.00 0.00 73 1016.6
20260903004214 28 140 0.0 0.0 0.00 0.00 0.00 70 1016.4
20260903003709 28 144 0.0 0.0 0.00 0.00 0.00 70 1016.6
20260903003205 28 143 0.0 1.6 0.00 0.00 0.00 68 1016.4
20260903002659 28 134 0.0 1.6 0.00 0.00 0.00 72 1016.4
20260903002154 29 161 0.0 0.0 0.00 0.00 0.00 72 1016.3
20260903001649 30 161 0.0 0.0 0.00 0.00 0.00 71 1016.3
20260903001142 30 162 0.0 0.0 0.00 0.00 0.00 68 1016.3
20260903000638 30 162 0.0 0.0 0.00 0.00 0.00 65 1016.3
20260903000138 31 162 0.0 0.0 0.00 0.00 0.00 65 1016.2
20260902235636 31 162 0.0 0.0 0.00 0.00 0.00 64 1016.2
20260902235132 31 162 0.0 0.0 0.00 0.00 0.00 63 1016.3
20260902234631 32 162 0.0 0.0 0.00 0.00 0.00 60 1016.2
20260902234130 32 162 0.0 0.0 0.00 0.00 0.00 60 1016.2
20260902233625 32 161 0.0 0.0 0.00 0.00 0.00 61 1016.2
20260902233119 33 162 0.0 0.0 0.00 0.00 0.00 58 1016.5
20260902232614 33 162 0.0 0.0 0.00 0.00 0.00 58 1016.4
20260902232113 33 173 1.6 1.6 0.00 0.00 0.00 56 1016.4
20260902231613 33 157 0.0 0.0 0.00 0.00 0.00 58 1016.3
20260902231113 33 156 0.0 1.6 0.00 0.00 0.00 56 1016.5
20260902230608 34 190 1.6 3.2 0.00 0.00 0.00 53 1016.5
20260902230107 34 164 0.0 1.6 0.00 0.00 0.00 52 1016.3
20260902225602 33 169 1.6 1.6 0.00 0.00 0.00 53 1016.6
20260902225101 33 160 1.6 1.6 0.00 0.00 0.00 55 1016.5
20260902224600 33 147 0.0 1.6 0.00 0.00 0.00 53 1016.7
20260902224056 33 174 1.6 3.2 0.00 0.00 0.00 53 1016.5
20260902223552 34 169 1.6 3.2 0.00 0.00 0.00 53 1016.4
20260902223051 35 198 3.2 3.2 0.00 0.00 0.00 52 1016.4
20260902222550 34 157 0.0 1.6 0.00 0.00 0.00 53 1016.4
20260902222049 33 165 1.6 3.2 0.00 0.00 0.00 53 1016.4
20260902221544 34 213 3.2 3.2 0.00 0.00 0.00 53 1016.6
20260902221039 33 177 1.6 1.6 0.00 0.00 0.00 53 1016.8
20260902220535 33 162 1.6 8.0 0.00 0.00 0.00 52 1016.7
20260902220034 35 188 3.2 8.0 0.00 0.00 0.00 50 1016.7
20260902215531 34 141 0.0 3.2 0.00 0.00 0.00 51 1016.5
20260902215026 33 178 3.2 3.2 0.00 0.00 0.00 51 1016.6
20260902214525 34 280 4.8 4.8 0.00 0.00 0.00 51 1016.7
20260902214025 33 263 6.4 8.0 0.00 0.00 0.00 52 1016.6
20260902213521 33 207 3.2 8.0 0.00 0.00 0.00 52 1016.6
20260902213020 34 230 4.8 8.0 0.00 0.00 0.00 53 1016.9
20260902212516 34 175 1.6 3.2 0.00 0.00 0.00 52 1016.6
20260902212012 33 138 3.2 9.7 0.00 0.00 0.00 53 1016.5
20260902211508 33 15 4.8 8.0 0.00 0.00 0.00 52 1016.8
20260902210956 33 297 8.0 9.7 0.00 0.00 0.00 53 1016.7
20260902210451 33 188 1.6 4.8 0.00 0.00 0.00 53 1016.8
20260902205949 34 209 6.4 8.0 0.00 0.00 0.00 54 1016.8
20260902205444 33 193 1.6 3.2 0.00 0.00 0.00 55 1016.9
20260902204940 33 167 3.2 8.0 0.00 0.00 0.00 53 1017.0
20260902204439 33 191 3.2 4.8 0.00 0.00 0.00 54 1016.9
20260902203935 34 270 8.0 12.9 0.00 0.00 0.00 55 1017.1
20260902203430 34 158 1.6 3.2 0.00 0.00 0.00 54 1016.9
20260902202929 33 155 0.0 4.8 0.00 0.00 0.00 54 1016.9
20260902202425 33 161 0.0 9.7 0.00 0.00 0.00 55 1017.3
20260902201922 33 202 9.7 11.3 0.00 0.00 0.00 55 1017.4
20260902201417 33 40 4.8 8.0 0.00 0.00 0.00 55 1017.3
20260902200917 33 189 8.0 11.3 0.00 0.00 0.00 55 1017.3
20260902200412 33 187 3.2 8.0 0.00 0.00 0.00 55 1017.5
20260902195908 33 133 4.8 11.3 0.00 0.00 0.00 55 1017.5
20260902195408 33 262 8.0 9.7 0.00 0.00 0.00 55 1017.5
20260902194902 33 246 3.2 8.0 0.00 0.00 0.00 55 1017.5
20260902194402 33 297 6.4 9.7 0.00 0.00 0.00 56 1017.6
20260902193856 33 190 4.8 8.0 0.00 0.00 0.00 57 1017.8
20260902193353 33 158 4.8 4.8 0.00 0.00 0.00 56 1017.8
20260902192852 33 226 4.8 8.0 0.00 0.00 0.00 55 1018.0
20260902192351 33 187 6.4 9.7 0.00 0.00 0.00 53 1017.8
20260902191845 33 138 1.6 4.8 0.00 0.00 0.00 55 1018.0
20260902191341 32 158 1.6 8.0 0.00 0.00 0.00 56 1017.8
20260902190835 33 200 9.7 14.5 0.00 0.00 0.00 56 1018.2
20260902190334 32 241 4.8 9.7 0.00 0.00 0.00 56 1018.0
20260902185831 32 266 8.0 14.5 0.00 0.00 0.00 56 1018.1
20260902185326 32 272 8.0 9.7 0.00 0.00 0.00 57 1018.2
20260902184822 33 264 12.9 16.1 0.00 0.00 0.00 56 1018.2
20260902184317 33 263 8.0 9.7 0.00 0.00 0.00 55 1018.2
20260902183813 33 247 6.4 9.7 0.00 0.00 0.00 56 1018.2
20260902183309 33 198 4.8 4.8 0.00 0.00 0.00 55 1018.3
20260902182804 32 162 1.6 12.9 0.00 0.00 0.00 57 1018.4
20260902182301 32 255 8.0 9.7 0.00 0.00 0.00 56 1018.5
20260902181757 33 218 9.7 12.9 0.00 0.00 0.00 55 1018.4
20260902181252 33 220 4.8 9.7 0.00 0.00 0.00 56 1018.5
20260902180752 33 157 4.8 8.0 0.00 0.00 0.00 55 1018.5
20260902180248 32 178 3.2 3.2 0.00 0.00 0.00 56 1018.6
20260902175743 32 114 4.8 11.3 0.00 0.00 0.00 56 1018.6
20260902175238 32 264 9.7 12.9 0.00 0.00 0.00 58 1018.8
20260902174734 32 156 4.8 11.3 0.00 0.00 0.00 57 1018.8
20260902174230 32 220 4.8 9.7 0.00 0.00 0.00 59 1018.9
20260902173726 32 198 4.8 8.0 0.00 0.00 0.00 58 1018.8
20260902173226 32 217 4.8 8.0 0.00 0.00 0.00 60 1018.8
20260902172725 32 185 6.4 9.7 0.00 0.00 0.00 61 1019.0
20260902172225 32 217 3.2 9.7 0.00 0.00 0.00 61 1018.9
20260902171721 31 149 0.0 9.7 0.00 0.00 0.00 62 1019.1
20260902171216 31 211 9.7 11.3 0.00 0.00 0.00 62 1019.6
20260902170712 31 235 4.8 11.3 0.00 0.00 0.00 63 1019.5
20260902170207 32 217 6.4 9.7 0.00 0.00 0.00 63 1019.2
20260902165702 31 161 1.6 3.2 0.00 0.00 0.00 64 1019.5
20260902165202 31 224 4.8 9.7 0.00 0.00 0.00 63 1019.3
20260902164657 31 194 4.8 9.7 0.00 0.00 0.00 64 1019.6
20260902164156 31 191 4.8 8.0 0.00 0.00 0.00 64 1019.6
20260902163651 31 260 8.0 12.9 0.00 0.00 0.00 65 1019.6
20260902163151 31 279 4.8 11.3 0.00 0.00 0.00 64 1019.7
20260902162649 32 85 4.8 9.7 0.00 0.00 0.00 66 1019.9
20260902162144 31 253 6.4 8.0 0.00 0.00 0.00 64 1019.8
20260902161639 31 216 4.8 8.0 0.00 0.00 0.00 66 1019.8
20260902161135 31 74 1.6 3.2 0.00 0.00 0.00 66 1020.0
20260902160632 31 150 0.0 3.2 0.00 0.00 0.00 65 1019.9
20260902160126 31 100 3.2 8.0 0.00 0.00 0.00 66 1020.0
20260902155625 31 174 4.8 9.7 0.00 0.00 0.00 67 1020.3
20260902155123 31 200 3.2 3.2 0.00 0.00 0.00 68 1019.9
20260902154619 30 146 1.6 1.6 0.00 0.00 0.00 71 1020.3
20260902154114 30 192 6.4 9.7 0.00 0.00 0.00 71 1020.1
20260902153612 30 200 4.8 9.7 0.00 0.00 0.00 71 1020.1
20260902153108 30 189 6.4 8.0 0.00 0.00 0.00 71 1019.9
20260902152604 30 187 3.2 4.8 0.00 0.00 0.00 73 1020.0
20260902152059 30 173 1.6 3.2 0.00 0.00 0.00 73 1020.2
20260902151555 29 187 4.8 4.8 0.00 0.00 0.00 75 1020.2
20260902151055 29 181 3.2 8.0 0.00 0.00 0.00 74 1020.1
20260902150550 28 190 1.6 9.7 0.00 0.00 0.00 75 1020.2
20260902150045 28 174 3.2 4.8 0.00 0.00 0.00 75 1020.0
20260902145540 28 208 4.8 8.0 0.00 0.00 0.00 75 1020.2
20260902145040 28 152 1.6 8.0 0.00 0.00 0.00 76 1019.9
20260902144537 28 265 4.8 8.0 0.00 0.00 0.00 75 1019.9
20260902144037 28 203 1.6 4.8 0.00 0.00 0.00 76 1019.9
20260902143537 28 139 0.0 4.8 0.00 0.00 0.00 76 1019.9
20260902143033 28 222 4.8 8.0 0.00 0.00 0.00 75 1020.0
20260902142529 28 194 4.8 4.8 0.00 0.00 0.00 77 1020.0
20260902142024 28 195 3.2 4.8 0.00 0.00 0.00 79 1019.9
20260902141524 28 185 3.2 3.2 0.00 0.00 0.00 78 1020.2
20260902141020 28 132 1.6 3.2 0.00 0.00 0.00 80 1020.0
20260902140519 28 154 1.6 1.6 0.00 0.00 0.00 81 1020.1
20260902140015 27 129 0.0 0.0 0.00 0.00 0.00 82 1020.1
20260902135509 27 173 1.6 3.2 0.00 0.00 0.00 83 1020.0
20260902135009 27 149 0.0 0.0 0.00 0.00 0.00 82 1020.1
20260902134506 27 145 0.0 0.0 0.00 0.00 0.00 84 1020.0
20260902134005 27 135 0.0 0.0 0.00 0.00 0.00 84 1020.1
20260902133500 26 145 0.0 0.0 0.00 0.00 0.00 85 1020.1
20260902132955 26 125 0.0 1.6 0.00 0.00 0.00 87 1020.0
20260902132445 26 141 0.0 1.6 0.00 0.00 0.00 88 1019.9
20260902131945 25 131 0.0 1.6 0.00 0.00 0.00 88 1020.0
20260902131441 25 129 0.0 1.6 0.00 0.00 0.00 88 1020.0
20260902130941 25 104 0.0 1.6 0.00 0.00 0.00 89 1019.9
20260902130437 25 115 0.0 0.0 0.00 0.00 0.00 90 1020.1
20260902125937 25 101 0.0 0.0 0.00 0.00 0.00 90 1020.0
20260902125433 25 103 0.0 0.0 0.00 0.00 0.00 91 1020.2
20260902124929 25 113 1.6 1.6 0.00 0.00 0.00 92 1020.0
20260902124425 23 122 0.0 0.0 0.00 0.00 0.00 95 1020.0
20260902123920 23 143 0.0 0.0 0.00 0.00 0.00 98 1019.9
20260902123416 22 91 0.0 1.6 0.00 0.00 0.00 99 1020.0
20260902122914 22 83 1.6 1.6 0.00 0.00 0.00 99 1020.1
20260902122410 21 120 0.0 0.0 0.00 0.00 0.00 99 1019.9
20260902121906 21 139 0.0 0.0 0.00 0.00 0.00 99 1019.9
20260902121400 21 132 0.0 1.6 0.00 0.00 0.00 99 1019.8
20260902120855 21 135 0.0 1.6 0.00 0.00 0.00 99 1019.9
20260902120352 21 128 0.0 1.6 0.00 0.00 0.00 99 1019.8
20260902115852 21 121 1.6 3.2 0.00 0.00 0.00 99 1019.7
20260902115348 21 98 1.6 3.2 0.00 0.00 0.00 99 1019.7
20260902114844 21 94 1.6 3.2 0.00 0.00 0.00 99 1019.7
20260902114340 21 83 0.0 0.0 0.00 0.00 0.00 99 1019.5
20260902113840 21 118 1.6 1.6 0.00 0.00 0.00 99 1019.3
20260902113336 21 123 0.0 0.0 0.00 0.00 0.00 99 1019.5
20260902112834 21 85 0.0 1.6 0.00 0.00 0.00 99 1019.3
20260902112331 21 106 0.0 0.0 0.00 0.00 0.00 99 1019.4
20260902111827 21 121 0.0 0.0 0.00 0.00 0.00 99 1019.3
20260902111323 21 123 0.0 0.0 0.00 0.00 0.00 99 1019.1
20260902110818 21 135 0.0 0.0 0.00 0.00 0.00 99 1019.1
20260902110314 21 116 0.0 0.0 0.00 0.00 0.00 99 1019.0
20260902105814 21 114 0.0 0.0 0.00 0.00 0.00 99 1019.0
20260902105309 21 131 0.0 1.6 0.00 0.00 0.00 99 1018.8
20260902104804 21 121 0.0 1.6 0.00 0.00 0.00 99 1019.0
20260902104255 21 121 0.0 1.6 0.00 0.00 0.00 99 1018.9
20260902103754 21 111 0.0 3.2 0.00 0.00 0.00 99 1018.8
20260902103254 21 122 0.0 0.0 0.00 0.00 0.00 99 1018.8
20260902102750 21 92 1.6 3.2 0.00 0.00 0.00 99 1018.7